OE3CJB-13 Weather Reports


time (UTC)temp
C
wind
direction
speed
KPH
gust
KPH
rain 1hr
cm
rain 24hr
cm
rain mn
cm
humidity
%
barometer
mb
20260905234535 18 0.0 0.0 0.00 0.00 0.00 49 1205.0
20260905233023 18 0.0 0.0 0.00 0.00 0.00 54 1205.7
20260905231606 17 0.0 0.0 0.00 0.00 0.00 62 1206.4
20260905230107 18 0.0 0.0 0.00 0.00 0.00 62 1207.2
20260905224535 18 0.0 0.0 0.00 0.00 0.00 61 1207.7
20260905223023 18 0.0 0.0 0.00 0.00 0.00 60 1208.2
20260905221605 18 0.0 0.0 0.00 0.00 0.00 60 1209.6
20260905220050 18 0.0 0.0 0.00 0.00 0.00 58 1210.3
20260905214605 18 0.0 0.0 0.00 0.00 0.00 57 1210.2
20260905213025 18 0.0 0.0 0.00 0.00 0.00 55 1211.6
20260905211605 19 0.0 0.0 0.00 0.00 0.00 54 1211.6
20260905210049 19 0.0 0.0 0.00 0.00 0.00 52 1210.8
20260905204610 19 0.0 0.0 0.00 0.00 0.00 52 1211.5
20260905203023 20 0.0 0.0 0.00 0.00 0.00 50 1209.8
20260905201604 20 0.0 0.0 0.00 0.00 0.00 50 1210.5
20260905200105 20 0.0 0.0 0.00 0.00 0.00 49 1210.5
20260905194535 20 0.0 0.0 0.00 0.00 0.00 49 1210.3
20260905193023 20 0.0 0.0 0.00 0.00 0.00 48 1209.4
20260905191605 20 0.0 0.0 0.00 0.00 0.00 48 1209.3
20260905190050 21 0.0 0.0 0.00 0.00 0.00 48 1208.4
20260905184535 21 0.0 0.0 0.00 0.00 0.00 47 1209.1
20260905183112 21 0.0 0.0 0.00 0.00 0.00 47 1208.2
20260905181605 21 0.0 0.0 0.00 0.00 0.00 47 1208.2
20260905180051 21 0.0 0.0 0.00 0.00 0.00 45 1207.1
20260905174535 21 0.0 0.0 0.00 0.00 0.00 44 1207.0
20260905173023 22 0.0 0.0 0.00 0.00 0.00 42 1205.3
20260905171604 22 0.0 0.0 0.00 0.00 0.00 41 1204.6
20260905170050 22 0.0 0.0 0.00 0.00 0.00 40 1203.8
20260905164535 23 0.0 0.0 0.00 0.00 0.00 39 1202.1
20260905163105 23 0.0 0.0 0.00 0.00 0.00 38 1200.5
20260905161605 23 0.0 0.0 0.00 0.00 0.00 37 1199.0
20260905160054 23 0.0 0.0 0.00 0.00 0.00 35 1197.4
20260905154536 24 0.0 0.0 0.00 0.00 0.00 35 1198.2
20260905153024 24 0.0 0.0 0.00 0.00 0.00 36 1197.2
20260905151606 24 0.0 0.0 0.00 0.00 0.00 35 1196.5
20260905150054 25 0.0 0.0 0.00 0.00 0.00 36 1196.6
20260905144535 25 0.0 0.0 0.00 0.00 0.00 36 1195.0
20260905143023 25 0.0 0.0 0.00 0.00 0.00 37 1193.5
20260905141606 25 0.0 0.0 0.00 0.00 0.00 38 1193.5
20260905140108 24 0.0 0.0 0.00 0.00 0.00 39 1192.7
20260905134536 24 0.0 0.0 0.00 0.00 0.00 41 1192.9
20260905133024 24 0.0 0.0 0.00 0.00 0.00 41 1191.5
20260905131605 23 0.0 0.0 0.00 0.00 0.00 43 1190.8
20260905130049 23 0.0 0.0 0.00 0.00 0.00 44 1190.2
20260905124535 23 0.0 0.0 0.00 0.00 0.00 46 1190.2
20260905123024 22 0.0 0.0 0.00 0.00 0.00 49 1190.3
20260905121606 22 0.0 0.0 0.00 0.00 0.00 50 1190.3
20260905120050 22 0.0 0.0 0.00 0.00 0.00 50 1190.2
20260905114606 22 0.0 0.0 0.00 0.00 0.00 54 1189.5
20260905113023 21 0.0 0.0 0.00 0.00 0.00 54 1180.5
20260905111606 21 0.0 0.0 0.00 0.00 0.00 56 1178.3
20260905110049 21 0.0 0.0 0.00 0.00 0.00 62 1176.8
20260905104536 20 0.0 0.0 0.00 0.00 0.00 67 1175.2
20260905103023 20 0.0 0.0 0.00 0.00 0.00 73 1175.3
20260905101511 18 0.0 0.0 0.00 0.00 0.00 78 1174.5
20260905100107 18 0.0 0.0 0.00 0.00 0.00 80 1174.5
20260905094535 17 0.0 0.0 0.00 0.00 0.00 80 1173.9
20260905093023 17 0.0 0.0 0.00 0.00 0.00 82 1175.1
20260905091605 17 0.0 0.0 0.00 0.00 0.00 83 1175.1
20260905090049 17 0.0 0.0 0.00 0.00 0.00 83 1174.2
20260905084534 17 0.0 0.0 0.00 0.00 0.00 83 1175.1
20260905083028 17 0.0 0.0 0.00 0.00 0.00 83 1175.1
20260905081605 16 0.0 0.0 0.00 0.00 0.00 81 1175.3
20260905080049 16 0.0 0.0 0.00 0.00 0.00 80 1176.2
20260905074534 16 0.0 0.0 0.00 0.00 0.00 80 1175.3
20260905073023 16 0.0 0.0 0.00 0.00 0.00 80 1176.1
20260905071605 16 0.0 0.0 0.00 0.00 0.00 77 1176.1
20260905070048 16 0.0 0.0 0.00 0.00 0.00 75 1176.2
20260905064535 16 0.0 0.0 0.00 0.00 0.00 74 1177.2
20260905063023 16 0.0 0.0 0.00 0.00 0.00 68 1177.9
20260905061605 17 0.0 0.0 0.00 0.00 0.00 66 1177.3
20260905060107 17 0.0 0.0 0.00 0.00 0.00 62 1176.7
20260905054535 18 0.0 0.0 0.00 0.00 0.00 47 1178.1
20260905053024 20 0.0 0.0 0.00 0.00 0.00 41 1178.2
20260905051605 20 0.0 0.0 0.00 0.00 0.00 39 1177.2
20260905050048 20 0.0 0.0 0.00 0.00 0.00 44 1177.4
20260905044534 20 0.0 0.0 0.00 0.00 0.00 51 1176.5
20260905043023 20 0.0 0.0 0.00 0.00 0.00 52 1177.0
20260905041605 21 0.0 0.0 0.00 0.00 0.00 50 1176.9
20260905040049 21 0.0 0.0 0.00 0.00 0.00 45 1176.9
20260905034534 21 0.0 0.0 0.00 0.00 0.00 45 1177.4
20260905033022 22 0.0 0.0 0.00 0.00 0.00 45 1177.4
20260905031605 22 0.0 0.0 0.00 0.00 0.00 51 1177.4
20260905030048 22 0.0 0.0 0.00 0.00 0.00 49 1176.2
20260905024535 23 0.0 0.0 0.00 0.00 0.00 46 1176.0
20260905023023 23 0.0 0.0 0.00 0.00 0.00 40 1175.9
20260905021605 23 0.0 0.0 0.00 0.00 0.00 39 1175.6
20260905020048 23 0.0 0.0 0.00 0.00 0.00 40 1177.1
20260905014605 22 0.0 0.0 0.00 0.00 0.00 40 1177.8
20260905013022 22 0.0 0.0 0.00 0.00 0.00 41 1176.9
20260905011608 22 0.0 0.0 0.00 0.00 0.00 41 1178.4
20260905010050 22 0.0 0.0 0.00 0.00 0.00 41 1177.5
20260905004535 22 0.0 0.0 0.00 0.00 0.00 43 1178.1
20260905003023 21 0.0 0.0 0.00 0.00 0.00 45 1178.8
20260905001606 21 0.0 0.0 0.00 0.00 0.00 46 1178.8
20260905000049 21 0.0 0.0 0.00 0.00 0.00 48 1178.7